Deptford, New Jersey, United States
Lat: 39.83N, Lon: 75.13W
Wx Zone: NJZ017
Local Info
Past Weather Observations for Monday, November 17, 2014

NOTE: This archive is for the closest National Weather Service station to Deptford. Information may differ from the station used for current weather conditions.

Click here for Long-term Archive

Time Weather Temperature Dewpoint Humidity Pressure Winds Precip Visibility
23:54
Overcast
45°F / 7°C 30°F / -1°C 57% 29.71 in
(1006 mb)
WNW 13.8 mph
(WNW 22 kph)
- 10SM
22:54
Overcast
45°F / 7°C 32°F / 0°C 61% 29.68 in
(1005 mb)
NW 15 mph
(NW 24 kph)
- 10SM
21:54
Overcast
46°F / 8°C 36°F / 2°C 66% 29.65 in
(1004 mb)
WNW 13.8 mph
(WNW 22 kph)
- 10SM
20:54
Overcast
46°F / 8°C 37°F / 3°C 71% 29.62 in
(1003 mb)
WNW 8.1 mph
(WNW 13 kph)
- 10SM
19:54
Overcast
48°F / 9°C 39°F / 4°C 71% 29.62 in
(1003 mb)
WNW 12.7 mph
(WNW 20 kph)
0.01 in
(0.25 mm)
10SM
19:16
Overcast
Light Rain
50°F / 10°C 43°F / 6°C 76% 29.59 in
(1002 mb)
WNW 9.2 mph
(WNW 15 kph)
0.00 in
(0.00 mm)
10SM
18:54
Overcast
Light Rain
50°F / 10°C 45°F / 7°C 82% 29.56 in
(1001 mb)
NW 11.5 mph
(NW 19 kph)
0.00 in
(0.00 mm)
10SM
18:47
Overcast
Light Rain
50°F / 10°C 45°F / 7°C 82% 29.56 in
(1001 mb)
WNW 11.5 mph
(WNW 19 kph)
0.00 in
(0.00 mm)
10SM
17:54
Overcast
50°F / 10°C 46°F / 8°C 88% 29.56 in
(1001 mb)
SSW 11.5 mph
(SSW 19 kph)
0.00 in
(0.00 mm)
10SM
17:38
Overcast
48°F / 9°C 46°F / 8°C 94% 29.56 in
(1001 mb)
SSW 10.4 mph
(SSW 17 kph)
0.00 in
(0.00 mm)
10SM
17:20
Overcast
48°F / 9°C 46°F / 8°C 94% 29.56 in
(1001 mb)
SSW 9.2 mph
(SSW 15 kph)
0.00 in
(0.00 mm)
10SM
17:11
Overcast
Light Rain
48°F / 9°C 46°F / 8°C 94% 29.56 in
(1001 mb)
SSW 10.4 mph
(SSW 17 kph)
0.00 in
(0.00 mm)
10SM
16:54
Overcast
Light Rain
48°F / 9°C 46°F / 8°C 94% 29.56 in
(1001 mb)
SSW 10.4 mph
(SSW 17 kph)
0.04 in
(1.02 mm)
9SM
16:43
Overcast
Light Rain
48°F / 9°C 45°F / 7°C 87% 29.56 in
(1001 mb)
SW 3.5 mph
(SW 6 kph)
0.04 in
(1.02 mm)
9SM
16:30
Overcast
Light Rain
46°F / 8°C 45°F / 7°C 93% 29.53 in
(1000 mb)
SSE 4.6 mph
(SSE 7 kph)
0.04 in
(1.02 mm)
7SM
15:54
Overcast
Light Rain
46°F / 8°C 45°F / 7°C 93% 29.56 in
(1001 mb)
SE 3.5 mph
(SE 6 kph)
0.04 in
(1.02 mm)
5SM
15:17
Overcast
Light Rain
46°F / 8°C 45°F / 7°C 93% 29.56 in
(1001 mb)
SE 3.5 mph
(SE 6 kph)
0.01 in
(0.25 mm)
6SM
14:54
Overcast
Light Rain
46°F / 8°C 45°F / 7°C 93% 29.59 in
(1002 mb)
SSE 3.5 mph
(SSE 6 kph)
0.03 in
(0.76 mm)
9SM
14:50
Overcast
Light Rain
46°F / 8°C 45°F / 7°C 93% 29.59 in
(1002 mb)
SSE 4.6 mph
(SSE 7 kph)
0.03 in
(0.76 mm)
9SM
14:43
Overcast
Light Rain
46°F / 8°C 45°F / 7°C 93% 29.59 in
(1002 mb)
SSE 4.6 mph
(SSE 7 kph)
0.03 in
(0.76 mm)
8SM
14:21
Overcast
Light Rain
46°F / 8°C 45°F / 7°C 93% 29.59 in
(1002 mb)
SE 3.5 mph
(SE 6 kph)
0.02 in
(0.51 mm)
8SM
14:08
Overcast
Light Rain
46°F / 8°C 45°F / 7°C 93% 29.59 in
(1002 mb)
E 3.5 mph
(E 6 kph)
0.02 in
(0.51 mm)
5SM
13:54
Overcast
Light Rain
46°F / 8°C 45°F / 7°C 93% 29.59 in
(1002 mb)
NNE 3.5 mph
(NNE 6 kph)
0.31 in
(7.87 mm)
4SM
13:50
Overcast
Rain
46°F / 8°C 45°F / 7°C 93% 29.59 in
(1002 mb)
NE 3.5 mph
(NE 6 kph)
0.31 in
(7.87 mm)
3SM
13:39
Overcast
Heavy Rain
45°F / 7°C 43°F / 6°C 93% 29.62 in
(1003 mb)
NW 9.2 mph
(NW 15 kph)
0.26 in
(6.60 mm)
2SM
12:54
Overcast
Rain
46°F / 8°C 43°F / 6°C 87% 29.62 in
(1003 mb)
ESE 4.6 mph
(ESE 7 kph)
0.14 in
(3.56 mm)
3SM
12:48
Overcast
Rain
45°F / 7°C 43°F / 6°C 93% 29.62 in
(1003 mb)
E 5.8 mph
(E 9 kph)
0.11 in
(2.79 mm)
3SM
12:37
Overcast
Light Rain
45°F / 7°C 43°F / 6°C 93% 29.62 in
(1003 mb)
E 6.9 mph
(E 11 kph)
0.09 in
(2.29 mm)
5SM
12:08
Overcast
Heavy Rain
45°F / 7°C 43°F / 6°C 93% 29.68 in
(1005 mb)
Calm 0.02 in
(0.51 mm)
2SM
11:54
Overcast
Light Rain
45°F / 7°C 43°F / 6°C 93% 29.68 in
(1005 mb)
E 5.8 mph
(E 9 kph)
0.04 in
(1.02 mm)
4SM
10:54
Overcast
Light Rain
45°F / 7°C 41°F / 5°C 87% 29.77 in
(1008 mb)
SE 6.9 mph
(SE 11 kph)
0.03 in
(0.76 mm)
3SM
10:34
Overcast
Light Rain
45°F / 7°C 41°F / 5°C 87% 29.8 in
(1009 mb)
SE 5.8 mph
(SE 9 kph)
0.03 in
(0.76 mm)
3SM
10:21
Overcast
Rain
43°F / 6°C 41°F / 5°C 93% 29.8 in
(1009 mb)
SE 6.9 mph
(SE 11 kph)
0.01 in
(0.25 mm)
2 1/2SM
10:09
Overcast
Light Rain
43°F / 6°C 41°F / 5°C 93% 29.8 in
(1009 mb)
SE 5.8 mph
(SE 9 kph)
0.01 in
(0.25 mm)
3SM
09:54
Overcast
Light Rain
43°F / 6°C 39°F / 4°C 87% 29.8 in
(1009 mb)
SE 4.6 mph
(SE 7 kph)
0.03 in
(0.76 mm)
2 1/2SM
09:41
Overcast
Light Rain
43°F / 6°C 41°F / 5°C 93% 29.83 in
(1010 mb)
SE 3.5 mph
(SE 6 kph)
0.02 in
(0.51 mm)
2SM
09:07
Overcast
Light Rain
43°F / 6°C 39°F / 4°C 87% 29.83 in
(1010 mb)
Calm 0.00 in
(0.00 mm)
1SM
09:03
Overcast
Light Rain
43°F / 6°C 39°F / 4°C 87% 29.83 in
(1010 mb)
Calm 0.00 in
(0.00 mm)
1 3/4SM
08:54
Overcast
Light Rain
43°F / 6°C 39°F / 4°C 87% 29.86 in
(1011 mb)
Variable 3.5 mph
(Variable 6 kph)
0.00 in
(0.00 mm)
2SM
08:48
Overcast
Light Rain
43°F / 6°C 39°F / 4°C 87% 29.86 in
(1011 mb)
Calm 0.00 in
(0.00 mm)
2 1/2SM
08:46
Overcast
Light Rain
43°F / 6°C 39°F / 4°C 87% 29.86 in
(1011 mb)
Calm 0.00 in
(0.00 mm)
4SM
08:10
Overcast
Light Rain
43°F / 6°C 39°F / 4°C 87% 29.86 in
(1011 mb)
NE 5.8 mph
(NE 9 kph)
0.00 in
(0.00 mm)
5SM
07:54
Overcast
Light Rain
43°F / 6°C 39°F / 4°C 87% 29.86 in
(1011 mb)
NE 3.5 mph
(NE 6 kph)
0.01 in
(0.25 mm)
3SM
07:49
Overcast
Light Rain
43°F / 6°C 39°F / 4°C 87% 29.86 in
(1011 mb)
NE 4.6 mph
(NE 7 kph)
0.01 in
(0.25 mm)
3SM
07:17
Overcast
Light Rain
43°F / 6°C 39°F / 4°C 87% 29.86 in
(1011 mb)
ENE 4.6 mph
(ENE 7 kph)
0.00 in
(0.00 mm)
3SM
06:54
Overcast
Light Rain
41°F / 5°C 39°F / 4°C 93% 29.89 in
(1012 mb)
E 6.9 mph
(E 11 kph)
0.02 in
(0.51 mm)
2 1/2SM
06:23
Overcast
Light Rain
41°F / 5°C 39°F / 4°C 93% 29.89 in
(1012 mb)
Variable 3.5 mph
(Variable 6 kph)
0.01 in
(0.25 mm)
2SM
05:54
Overcast
Light Rain
41°F / 5°C 39°F / 4°C 93% 29.89 in
(1012 mb)
NE 5.8 mph
(NE 9 kph)
0.02 in
(0.51 mm)
3SM
05:46
Overcast
Light Rain
41°F / 5°C 37°F / 3°C 87% 29.92 in
(1013 mb)
NE 4.6 mph
(NE 7 kph)
0.01 in
(0.25 mm)
3SM
04:54
Overcast
Light Rain
41°F / 5°C 39°F / 4°C 93% 29.95 in
(1014 mb)
E 8.1 mph
(E 13 kph)
0.08 in
(2.03 mm)
2 1/2SM
04:37
Overcast
Light Rain
41°F / 5°C 39°F / 4°C 93% 29.95 in
(1014 mb)
E 4.6 mph
(E 7 kph)
0.07 in
(1.78 mm)
2SM
04:12
Overcast
Light Rain
41°F / 5°C 39°F / 4°C 93% 29.98 in
(1015 mb)
E 4.6 mph
(E 7 kph)
0.01 in
(0.25 mm)
1 3/4SM
04:00
Overcast
Light Rain
41°F / 5°C 39°F / 4°C 93% 29.98 in
(1015 mb)
ENE 3.5 mph
(ENE 6 kph)
0.01 in
(0.25 mm)
2 1/2SM
03:54
Overcast
Light Rain
39°F / 4°C 37°F / 3°C 93% 29.98 in
(1015 mb)
Calm 0.11 in
(2.79 mm)
2SM
03:35
Overcast
Rain
39°F / 4°C 37°F / 3°C 93% 30.01 in
(1016 mb)
Calm 0.09 in
(2.29 mm)
2SM
03:11
Overcast
Rain
39°F / 4°C 37°F / 3°C 93% 30.01 in
(1016 mb)
Calm 0.02 in
(0.51 mm)
2SM
03:02
Overcast
Rain
39°F / 4°C 37°F / 3°C 93% 30.01 in
(1016 mb)
Calm 0.01 in
(0.25 mm)
3SM
02:54
Overcast
Rain
39°F / 4°C 37°F / 3°C 93% 30.01 in
(1016 mb)
E 3.5 mph
(E 6 kph)
0.08 in
(2.03 mm)
3SM
02:41
Overcast
Rain
39°F / 4°C 37°F / 3°C 93% 30.01 in
(1016 mb)
SE 5.8 mph
(SE 9 kph)
0.05 in
(1.27 mm)
3SM
02:33
Overcast
Light Rain
39°F / 4°C 37°F / 3°C 93% 30.04 in
(1017 mb)
SE 9.2 mph
(SE 15 kph)
0.03 in
(0.76 mm)
5SM
02:09
Overcast
Light Rain
39°F / 4°C 37°F / 3°C 93% 30.04 in
(1017 mb)
ESE 6.9 mph
(ESE 11 kph)
0.02 in
(0.51 mm)
5SM
01:54
Overcast
Rain
39°F / 4°C 36°F / 2°C 87% 30.04 in
(1017 mb)
E 8.1 mph
(E 13 kph)
0.06 in
(1.52 mm)
6SM
01:50
Overcast
Light Rain
41°F / 5°C 37°F / 3°C 87% 30.04 in
(1017 mb)
ESE 8.1 mph
(ESE 13 kph)
0.05 in
(1.27 mm)
6SM
00:54
Overcast
Light Rain
41°F / 5°C 37°F / 3°C 87% 30.06 in
(1018 mb)
E 4.6 mph
(E 7 kph)
0.00 in
(0.00 mm)
9SM
Time Weather Temperature Dewpoint Humidity Pressure Winds Precip Visibility


Weather for websites

WeatherForYou.com, LLC is not responsible for any damages or problems caused by this service. Current weather conditions are obtained from the closest station including government and personal stations which may have varying degrees of accuracy. Weather forecasts are derived from the NOAA NDFD. Like all things, this site belongs to Jesus Christ... He just trusts me to maintain it. If you have any questions or comments email webmaster@weatherforyou.com

Copyright © 2014, WeatherForYou.com LLC. All rights reserved.